World > North America > United States > Pennsylvania

Hourly Drury Run, PA Regional Weather

Feedback E-mail the Weather

Quick WX

Drury Run, PA Weather Maps

°F °C°F °C
Drury Run Weather Map
UTC Time: 7/4/2022, 15:19
Your Time:

Drury Run, PA Regional Weather

Expires:202207041600;;671003
ASUS41 KCTP 041510
RWRCTP

REGIONAL WEATHER ROUNDUP
NATIONAL WEATHER SERVICE STATE COLLEGE PA
1100 AM EDT MON JUL 04 2022

Note: "fair" indicates few or no clouds below 12,000 feet with no 
significant weather and/or obstructions to visibility.

* = STATION THAT DOES NOT REPORT PRECIPITATION /E.G. RAIN...SNOW...ETC/
    THUNDER OR FOG.


PAZ004>006-010>012-017>019-024>028-033>037-041-042-045-046-049>053-041600-
CENTRAL PENNSYLVANIA
  
CITY           SKY/WX    TMP DP  RH WIND       PRES   REMARKS
BRADFORD       SUNNY     75  51  43 VRB6      30.25S                  
ST MARYS       CLOUDY    73  54  49 CALM      30.28                   
DUBOIS         SUNNY     76  50  40 CALM      30.25R                  
CLEARFIELD     SUNNY     75  49  39 VRB3      30.26R                  
JOHNSTOWN      SUNNY     72  46  39 S6        30.26F                  
SOMERSET       FAIR      72  48  43 SE3       30.27F                  
ALTOONA        SUNNY     76  51  41 SW5       30.25F                  
STATE COLLEGE  SUNNY     75  54  46 S3        30.24F                  
REEDSVILLE     FAIR      79  54  41 VRB6      30.22                   
WELLSBORO      FAIR      73  48  40 VRB6      30.23F                  
WILLIAMSPORT   SUNNY     77  47  34 W6        30.20F                  
SELINSGROVE    SUNNY     77  51  40 S7        30.22S                  
FT INDIANTOWN  NOT AVBL                                               
CAPITAL CITY   SUNNY     83  51  33 CALM      30.20F                  
HARRISBURG     MOSUNNY   80  47  31 S3        30.20S                  
YORK           SUNNY     79  48  33 SW3       30.22S                  
$$


SKY/WX - Weather  TMP - Temperature  DP - Dew Point  RH - Humidity
WIND - Wind Direction/Speed PRES - Barometric Pressure VSB - Visibility
WCI - Wind Chill Index E13G22 Wind - East Wind 13 mph/Gusts of 22 mph

Trending Headlines

Drury Run Radar Loop



Drury Run Quick Facts


National Two Day Weather Forecast


E-mail the Drury Run Weather Forecast

Voice your opinion or tell us about page issues...